When you browse on this site, cookies collect data to enhance your experience and personalize the content and advertising you see.
Visit our Privacy Policy to learn more. By continuing to use the site, you agree to this use of cookies and data.
  • In United Kingdom
  • List of Countries
  • For 7 days
  • Water Temperature
  • Satellite Maps
  • Weather Map
  • Weather Widgets
  • user-avatar
    Login

    Hourly Weather Kumasi

    Today, 20 April, Saturday

    Time Temperature Precipitation Wind Pressure Humidity
    00:00 +30°C° 0 mm 1 mps 756 mmHg 77%
    01:00 +30°C° 0 mm 2 mps 755 mmHg 78%
    02:00 +30°C° 0 mm 2 mps 755 mmHg 79%
    03:00 +29°C° 0 mm 2 mps 755 mmHg 80%
    04:00 +29°C° 0 mm 2 mps 755 mmHg 80%
    05:00 +29°C° 0 mm 2 mps 755 mmHg 81%
    06:00 +29°C° 0 mm 2 mps 755 mmHg 81%
    07:00 +31°C° 0 mm 2 mps 755 mmHg 73%
    08:00 +34°C° 0 mm 3 mps 755 mmHg 64%
    09:00 +36°C° 0 mm 3 mps 755 mmHg 55%
    10:00 +37°C° 0 mm 3 mps 755 mmHg 50%
    11:00 +39°C° 0 mm 3 mps 755 mmHg 44%
    12:00 +40°C° 0 mm 3 mps 755 mmHg 39%
    13:00 +40°C° 0 mm 4 mps 754 mmHg 42%
    14:00 +40°C° 0 mm 5 mps 754 mmHg 44%
    15:00 +39°C° 0 mm 6 mps 753 mmHg 47%
    16:00 +36°C° 0.4 mm 5 mps 753 mmHg 55%
    17:00 +34°C° 0.4 mm 5 mps 754 mmHg 62%
    18:00 +32°C° 0.4 mm 4 mps 754 mmHg 70%
    19:00 +32°C° 0 mm 4 mps 755 mmHg 72%
    20:00 +31°C° 0 mm 3 mps 755 mmHg 74%
    21:00 +31°C° 0 mm 3 mps 756 mmHg 76%
    22:00 +30°C° 0 mm 3 mps 756 mmHg 77%
    23:00 +30°C° 0 mm 3 mps 755 mmHg 77%

    Tomorrow, 21 April, Sunday

    Time Temperature Precipitation Wind Pressure Humidity
    00:00 +30°C° 0 mm 3 mps 755 mmHg 77%
    01:00 +30°C° 0 mm 3 mps 755 mmHg 77%
    02:00 +30°C° 0 mm 3 mps 754 mmHg 77%
    03:00 +30°C° 0 mm 3 mps 754 mmHg 77%
    04:00 +30°C° 0 mm 2 mps 754 mmHg 77%
    05:00 +29°C° 0 mm 2 mps 754 mmHg 78%
    06:00 +29°C° 0 mm 2 mps 754 mmHg 79%
    07:00 +31°C° 0 mm 2 mps 754 mmHg 72%
    08:00 +33°C° 0 mm 3 mps 755 mmHg 65%
    09:00 +35°C° 0 mm 3 mps 755 mmHg 58%
    10:00 +36°C° 0 mm 3 mps 755 mmHg 52%
    11:00 +38°C° 0 mm 3 mps 755 mmHg 46%
    12:00 +39°C° 0 mm 3 mps 754 mmHg 40%
    13:00 +38°C° 0 mm 3 mps 754 mmHg 43%
    14:00 +37°C° 0 mm 4 mps 753 mmHg 47%
    15:00 +36°C° 0 mm 4 mps 752 mmHg 50%
    16:00 +35°C° 0 mm 4 mps 752 mmHg 54%
    17:00 +34°C° 0 mm 4 mps 752 mmHg 58%
    18:00 +33°C° 0 mm 4 mps 753 mmHg 62%
    19:00 +33°C° 0 mm 4 mps 753 mmHg 65%
    20:00 +32°C° 0 mm 4 mps 754 mmHg 67%
    21:00 +32°C° 0 mm 4 mps 755 mmHg 70%
    22:00 +31°C° 0 mm 3 mps 754 mmHg 71%
    23:00 +31°C° 0 mm 3 mps 754 mmHg 73%

    Day after tomorrow, 22 April, Monday

    Time Temperature Precipitation Wind Pressure Humidity
    00:00 +30°C° 0 mm 3 mps 754 mmHg 74%
    01:00 +30°C° 0 mm 3 mps 754 mmHg 75%
    02:00 +30°C° 0 mm 3 mps 753 mmHg 75%
    03:00 +30°C° 0 mm 3 mps 753 mmHg 76%
    04:00 +30°C° 0 mm 2 mps 753 mmHg 77%
    05:00 +29°C° 0 mm 2 mps 753 mmHg 78%
    06:00 +29°C° 0 mm 2 mps 754 mmHg 80%
    07:00 +31°C° 0 mm 2 mps 754 mmHg 71%
    08:00 +34°C° 0 mm 3 mps 755 mmHg 62%
    09:00 +36°C° 0 mm 3 mps 755 mmHg 53%
    10:00 +37°C° 0 mm 4 mps 755 mmHg 49%
    11:00 +40°C° 0 mm 4 mps 754 mmHg 45%
    12:00 +41°C° 0 mm 4 mps 754 mmHg 41%
    13:00 +40°C° 0 mm 5 mps 753 mmHg 43%
    14:00 +40°C° 0 mm 6 mps 752 mmHg 45%
    15:00 +39°C° 0 mm 6 mps 751 mmHg 48%
    16:00 +36°C° 0.4 mm 6 mps 752 mmHg 55%
    17:00 +34°C° 0.4 mm 5 mps 752 mmHg 63%
    18:00 +33°C° 0.4 mm 5 mps 752 mmHg 71%
    19:00 +32°C° 0 mm 4 mps 753 mmHg 74%
    20:00 +32°C° 0 mm 4 mps 753 mmHg 77%
    21:00 +31°C° 0 mm 3 mps 754 mmHg 79%
    22:00 +30°C° 0 mm 3 mps 754 mmHg 80%
    23:00 +30°C° 0 mm 3 mps 754 mmHg 81%

    23 April, Tuesday

    Time Temperature Precipitation Wind Pressure Humidity
    00:00 +30°C° 0 mm 2 mps 754 mmHg 82%
    01:00 +30°C° 0 mm 2 mps 753 mmHg 82%
    02:00 +30°C° 0 mm 2 mps 753 mmHg 83%
    03:00 +30°C° 0 mm 2 mps 752 mmHg 83%
    04:00 +29°C° 0 mm 2 mps 753 mmHg 83%
    05:00 +29°C° 0 mm 2 mps 753 mmHg 83%
    06:00 +29°C° 0 mm 2 mps 753 mmHg 83%
    07:00 +31°C° 0 mm 3 mps 754 mmHg 74%
    08:00 +34°C° 0 mm 3 mps 755 mmHg 65%
    09:00 +36°C° 0 mm 4 mps 755 mmHg 56%
    10:00 +37°C° 0 mm 4 mps 755 mmHg 52%
    11:00 +38°C° 0 mm 4 mps 754 mmHg 48%
    12:00 +40°C° 0 mm 4 mps 754 mmHg 44%
    13:00 +38°C° 0.3 mm 4 mps 753 mmHg 47%
    14:00 +38°C° 0.3 mm 4 mps 753 mmHg 50%
    15:00 +37°C° 0.3 mm 4 mps 752 mmHg 53%
    16:00 +36°C° 0.5 mm 4 mps 752 mmHg 58%
    17:00 +34°C° 0.5 mm 3 mps 753 mmHg 63%
    18:00 +33°C° 0.5 mm 3 mps 753 mmHg 69%
    19:00 +33°C° 0.2 mm 3 mps 754 mmHg 71%
    20:00 +31°C° 0.2 mm 3 mps 754 mmHg 73%
    21:00 +31°C° 0.2 mm 2 mps 755 mmHg 75%
    22:00 +30°C° 0 mm 2 mps 754 mmHg 76%
    23:00 +30°C° 0 mm 3 mps 754 mmHg 76%

    24 April, Wednesday

    Time Temperature Precipitation Wind Pressure Humidity
    00:00 +30°C° 0 mm 3 mps 753 mmHg 77%
    01:00 +30°C° 0 mm 2 mps 753 mmHg 79%
    02:00 +29°C° 0 mm 2 mps 753 mmHg 80%
    03:00 +29°C° 0 mm 1 mps 753 mmHg 81%
    04:00 +29°C° 0 mm 2 mps 753 mmHg 82%
    05:00 +29°C° 0 mm 2 mps 754 mmHg 83%
    06:00 +29°C° 0 mm 2 mps 754 mmHg 84%
    07:00 +31°C° 0 mm 2 mps 755 mmHg 76%
    08:00 +33°C° 0 mm 3 mps 755 mmHg 67%
    09:00 +35°C° 0 mm 3 mps 755 mmHg 59%
    10:00 +36°C° 0 mm 3 mps 755 mmHg 55%
    11:00 +37°C° 0 mm 3 mps 754 mmHg 51%
    12:00 +38°C° 0 mm 4 mps 754 mmHg 47%
    13:00 +38°C° 0.9 mm 4 mps 753 mmHg 49%
    14:00 +38°C° 0.9 mm 4 mps 753 mmHg 51%
    15:00 +37°C° 0.9 mm 4 mps 752 mmHg 53%
    16:00 +36°C° 0.3 mm 4 mps 753 mmHg 58%
    17:00 +34°C° 0.3 mm 4 mps 753 mmHg 62%
    18:00 +33°C° 0.3 mm 4 mps 753 mmHg 67%
    19:00 +33°C° 0 mm 4 mps 754 mmHg 69%
    20:00 +32°C° 0 mm 4 mps 754 mmHg 71%
    21:00 +32°C° 0 mm 5 mps 754 mmHg 73%
    22:00 +32°C° 0 mm 4 mps 755 mmHg 74%
    23:00 +30°C° 0 mm 3 mps 755 mmHg 76%

    25 April, Thursday

    Time Temperature Precipitation Wind Pressure Humidity
    00:00 +30°C° 0 mm 2 mps 755 mmHg 77%
    01:00 +30°C° 0 mm 2 mps 754 mmHg 78%
    02:00 +30°C° 0 mm 2 mps 754 mmHg 79%
    03:00 +30°C° 0 mm 3 mps 753 mmHg 80%
    04:00 +30°C° 0 mm 2 mps 754 mmHg 81%
    05:00 +30°C° 0 mm 2 mps 754 mmHg 82%
    06:00 +29°C° 0 mm 2 mps 754 mmHg 83%
    07:00 +31°C° 0 mm 2 mps 755 mmHg 75%
    08:00 +34°C° 0 mm 3 mps 755 mmHg 67%
    09:00 +35°C° 0 mm 3 mps 755 mmHg 59%
    10:00 +36°C° 0.1 mm 3 mps 755 mmHg 56%
    11:00 +37°C° 0.1 mm 3 mps 755 mmHg 53%
    12:00 +37°C° 0.1 mm 3 mps 755 mmHg 50%
    13:00 +37°C° 1.3 mm 4 mps 754 mmHg 52%
    14:00 +37°C° 1.3 mm 4 mps 753 mmHg 54%
    15:00 +37°C° 1.3 mm 4 mps 752 mmHg 55%
    16:00 +36°C° 0 mm 4 mps 753 mmHg 58%
    17:00 +35°C° 0 mm 4 mps 753 mmHg 61%
    18:00 +34°C° 0 mm 4 mps 753 mmHg 64%
    19:00 +33°C° 0 mm 4 mps 754 mmHg 67%
    20:00 +33°C° 0 mm 3 mps 754 mmHg 69%
    21:00 +31°C° 0 mm 3 mps 755 mmHg 71%
    22:00 +31°C° 0 mm 3 mps 755 mmHg 73%
    23:00 +31°C° 0 mm 3 mps 754 mmHg 74%
    Show more